Weather History for San Diego, CA

Change the Weather History Date:

Monday, February 25, 2013

  Actual Average Record
Temperature  
Mean Temperature 57 °F 58 °F  
Max Temperature 69 °F 65 °F 82 °F (1926)
Min Temperature 45 °F 52 °F 41 °F (1956)
Degree Days  
Heating Degree Days 8 7  
Month to date heating degree days 216 181  
Since 1 July heating degree days 812 836  
Cooling Degree Days 0 0  
Month to date cooling degree days 1 0  
Year to date cooling degree days 1 2  
Growing Degree Days 7 (Base 50)    
Moisture  
Dew Point 28 °F    
Average Humidity 27    
Maximum Humidity 46    
Minimum Humidity 7    
Precipitation  
Precipitation 0.00 in 0.08 in 1.48 in (2003)
Month to date precipitation 0.63 2.03  
Year to date precipitation 1.84 4.01  
Since 1 July precipitation 5.01 7.32  
Snow  
Snow 0.00 in - - ()
Month to date snowfall 0.0  
Year to date snowfall 0.0  
Since 1 July snowfall 0.0  
Snow Depth 0.00 in    
Sea Level Pressure  
Sea Level Pressure 30.17 in    
Wind  
Wind Speed 3 mph (West)    
Max Wind Speed 14 mph    
Max Gust Speed 16 mph    
Visibility 10 miles    
Events      
T = Trace of Precipitation, MM = Missing Value Source: NWS Daily Summary

Daily Weather History Graph

Daily Weather History Graph

Search for Another Location

Airport:

Trip Planner

Search our weather history database for the weather conditions in past years. The results will help you decide how hot, cold, wet, or windy it might be!

Date:

Astronomy

Feb. 25, 2013 Rise Set
Actual Time 6:20 AM PST 5:43 PM PST
Civil Twilight 5:55 AM PST 6:07 PM PST
Nautical Twilight 5:27 AM PST 6:36 PM PST
Astronomical Twilight 4:58 AM PST 7:05 PM PST
Moon 5:57 PM PST (2/25) 5:55 AM PST (2/25)
Length of Visible Light 12h 11m
Length of Day
11h 22m
Full, 100% of the Moon is Illuminated
Feb 25
Full
Feb 25
Full
Mar 4
Last Quarter
Mar 11
New
Mar 19
First Quarter

Hourly Weather History & Observations

Time (PST) Temp. Windchill Dew Point Humidity Pressure Visibility Wind Dir Wind Speed Gust Speed Precip Events Conditions
12:51 AM 50.0 °F - 30.0 °F 46% 30.24 in 10.0 mi Calm Calm - N/A   Clear
1:51 AM 50.0 °F - 26.1 °F 39% 30.23 in 10.0 mi Calm Calm - N/A   Clear
2:51 AM 50.0 °F - 19.0 °F 29% 30.21 in 10.0 mi Calm Calm - N/A   Clear
3:51 AM 48.9 °F - 18.0 °F 29% 30.21 in 10.0 mi Calm Calm - N/A   Clear
4:51 AM 48.9 °F - 17.1 °F 28% 30.22 in 10.0 mi ESE 3.5 mph - N/A   Clear
5:51 AM 46.9 °F - 19.9 °F 34% 30.21 in 10.0 mi Calm Calm - N/A   Clear
6:51 AM 46.0 °F 43.9 °F 21.0 °F 37% 30.22 in 10.0 mi NNW 4.6 mph - N/A   Partly Cloudy
7:51 AM 51.1 °F - 19.9 °F 29% 30.23 in 10.0 mi Calm Calm - N/A   Partly Cloudy
8:51 AM 54.0 °F - 24.1 °F 31% 30.22 in 10.0 mi South 4.6 mph - N/A   Partly Cloudy
9:51 AM 59.0 °F - 24.1 °F 26% 30.22 in 10.0 mi WSW 3.5 mph - N/A   Partly Cloudy
10:51 AM 63.0 °F - 16.0 °F 16% 30.21 in 10.0 mi WSW 4.6 mph - N/A   Partly Cloudy
11:51 AM 66.0 °F - 6.1 °F 9% 30.19 in 10.0 mi SSW 6.9 mph - N/A   Partly Cloudy
12:51 PM 68.0 °F - 1.9 °F 7% 30.15 in 10.0 mi Variable 3.5 mph - N/A   Partly Cloudy
1:51 PM 66.9 °F - 5.0 °F 9% 30.14 in 10.0 mi West 11.5 mph - N/A   Partly Cloudy
2:51 PM 64.0 °F - 30.9 °F 29% 30.14 in 10.0 mi WNW 10.4 mph - N/A   Partly Cloudy
3:51 PM 61.0 °F - 37.9 °F 42% 30.13 in 10.0 mi WNW 10.4 mph - N/A   Partly Cloudy
4:51 PM 61.0 °F - 42.1 °F 50% 30.11 in 10.0 mi NNW 9.2 mph - N/A   Partly Cloudy
5:51 PM 57.9 °F - 45.0 °F 62% 30.11 in 10.0 mi WNW 8.1 mph - N/A   Partly Cloudy
6:51 PM 57.0 °F - 48.0 °F 72% 30.13 in 10.0 mi NW 3.5 mph - N/A   Partly Cloudy
7:51 PM 57.0 °F - 46.9 °F 69% 30.13 in 10.0 mi Calm Calm - N/A   Partly Cloudy
8:51 PM 55.9 °F - 46.0 °F 69% 30.14 in 10.0 mi Calm Calm - N/A   Partly Cloudy
9:51 PM 54.0 °F - 44.1 °F 69% 30.14 in 10.0 mi Calm Calm - N/A   Partly Cloudy
10:51 PM 53.1 °F - 41.0 °F 64% 30.13 in 10.0 mi Calm Calm - N/A   Clear
11:51 PM 51.1 °F - 37.0 °F 59% 30.12 in 10.0 mi Calm Calm - N/A   Clear